LAGEOS 2

Last updated on Tue Aug 25 2026 00:03:35 GMT+0000 (Coordinated Universal Time)

1 22195U 92070B 26233.39763817 -.00000009 00000+0 00000+0 0 9995 2 22195 52.6389 225.4441 0138024 215.8902 299.2308 6.47294115799648
UTC large
Height (km)
Speed (km/s)
/
Latitude / Longitude
Inclination (degrees)
Orbital Period (minutes)
Azimuth
Elevation
Range (km)
Doppler Factor

Next 0 passes for location: London (51.5072 / 0.1276)

No passes found over London.
LAGEOS 2